Weather History for KFBG - March, 2013

Change the Weather History Date:

Monday, March 11, 2013

  Actual Average Record
Temperature  
Mean Temperature 54 °F -  
Max Temperature 70 °F 60 °F 83 °F (2015)
Min Temperature 40 °F 40 °F 28 °F (1998)
Degree Days  
Heating Degree Days 11    
Growing Degree Days 4 (Base 50)    
Moisture  
Dew Point 46 °F    
Average Humidity 68    
Maximum Humidity 91    
Minimum Humidity 49    
Precipitation  
Precipitation 0.00 in - - ()
Sea Level Pressure  
Sea Level Pressure 30.09 in    
Wind  
Wind Speed 4 mph (SSE)    
Max Wind Speed 13 mph    
Max Gust Speed 25 mph    
Visibility 10 miles    
Events Rain    
Averages and records for this station are not official NWS values.
T = Trace of Precipitation, MM = Missing Value Source: NWS Daily Summary

Daily Weather History Graph

Daily Weather History Graph

Search for Another Location

Airport or City:

Trip Planner

Search our weather history database for the weather conditions in past years. The results will help you decide how hot, cold, wet, or windy it might be!

Date:

Astronomy

Mar. 11, 2013 Rise Set
Actual Time 7:31 AM EDT 7:20 PM EDT
Civil Twilight 7:06 AM EDT 7:45 PM EDT
Nautical Twilight 6:36 AM EDT 8:14 PM EDT
Astronomical Twilight 6:07 AM EDT 8:44 PM EDT
Moon 7:05 AM EDT (3/11) 7:28 PM EDT (3/11)
Length of Visible Light 12h 39m
Length of Day
11h 48m
Waning Crescent, 0% of the Moon is Illuminated
Mar 11
Waning Crescent
Mar 11
New
Mar 19
First Quarter
Mar 27
Full
Apr 3
Last Quarter

Hourly Weather History & Observations

Time (EDT) Temp. Dew Point Humidity Pressure Visibility Wind Dir Wind Speed Gust Speed Precip Events Conditions
12:58 AM 44.8 °F 27.7 °F 51% 30.24 in 10.0 mi Calm Calm - N/A   Clear
1:58 AM 42.3 °F 30.0 °F 62% 30.25 in 10.0 mi Calm Calm - N/A   Clear
2:58 AM 41.4 °F 30.7 °F 66% 30.22 in 10.0 mi Calm Calm - N/A   Clear
3:58 AM 40.5 °F 33.1 °F 75% 30.19 in 10.0 mi ESE 2.3 mph - N/A   Clear
4:58 AM 41.9 °F 34.5 °F 75% 30.18 in 10.0 mi Calm Calm - N/A   Scattered Clouds
5:58 AM 43.3 °F 37.8 °F 81% 30.18 in 10.0 mi Calm Calm - N/A   Partly Cloudy
6:58 AM 42.4 °F 39.2 °F 88% 30.17 in 10.0 mi Calm Calm - N/A   Partly Cloudy
7:58 AM 42.8 °F 40.3 °F 91% 30.17 in 10.0 mi Calm Calm - N/A   Clear
8:58 AM 47.3 °F 44.1 °F 88% 30.18 in 10.0 mi SSE 3.5 mph - N/A   Clear
9:58 AM 52.7 °F 47.5 °F 82% 30.16 in 10.0 mi SE 6.9 mph - N/A   Clear
10:58 AM 58.3 °F 48.2 °F 69% 30.14 in 10.0 mi SSE 5.8 mph - N/A   Clear
11:58 AM 65.7 °F 49.5 °F 56% 30.13 in 10.0 mi SSE 9.2 mph - N/A   Partly Cloudy
12:58 PM 68.7 °F 48.7 °F 49% 30.11 in 10.0 mi South 12.7 mph - N/A   Partly Cloudy
1:58 PM 67.8 °F 48.2 °F 49% 30.09 in 10.0 mi South 12.7 mph 20.7 mph N/A   Scattered Clouds
2:58 PM 68.9 °F 48.7 °F 49% 30.05 in 10.0 mi South 8.1 mph 17.3 mph N/A   Scattered Clouds
3:58 PM 68.7 °F 51.3 °F 54% 30.01 in 10.0 mi SE 10.4 mph - N/A   Partly Cloudy
4:58 PM 68.2 °F 52.2 °F 56% 29.99 in 10.0 mi SE 11.5 mph 25.3 mph N/A   Scattered Clouds
5:58 PM 67.1 °F 52.2 °F 59% 29.99 in 10.0 mi SSE 10.4 mph - N/A   Partly Cloudy
6:58 PM 65.3 °F 52.7 °F 64% 29.98 in 10.0 mi SSE 12.7 mph 18.4 mph N/A   Clear
7:58 PM 64.0 °F 53.2 °F 68% 29.97 in 10.0 mi SSE 10.4 mph 18.4 mph N/A   Scattered Clouds
8:58 PM 62.8 °F 53.8 °F 72% 29.98 in 10.0 mi SSE 9.2 mph - N/A   Scattered Clouds
9:58 PM 62.1 °F 53.4 °F 73% 29.97 in 10.0 mi SE 5.8 mph - N/A   Mostly Cloudy
10:58 PM 61.7 °F 53.4 °F 74% 29.97 in 10.0 mi SSE 6.9 mph - N/A   Mostly Cloudy
11:52 PM 60.8 °F 53.6 °F 77% 29.94 in 10.0 mi SE 6.9 mph - N/A Rain Light Rain
11:58 PM 61.2 °F 54.5 °F 79% 29.96 in 10.0 mi SE 5.8 mph - 0.00 in Rain Light Rain